Weather History for Janesville, WI

Change the Weather History Date:

Saturday, October 5, 2013

  Actual Average Record
Temperature  
Mean Temperature 68 °F -  
Max Temperature 75 °F 63 °F 84 °F (2005)
Min Temperature 60 °F 41 °F 28 °F (1988)
Cooling Degree Days 2    
Growing Degree Days 18 (Base 50)    
Moisture  
Dew Point 62 °F    
Average Humidity 86    
Maximum Humidity 94    
Minimum Humidity 55    
Precipitation  
Precipitation 0.00 in - - ()
Sea Level Pressure  
Sea Level Pressure 29.85 in    
Wind  
Wind Speed 6 mph (SSE)    
Max Wind Speed 17 mph    
Max Gust Speed -    
Visibility 6 miles    
Events Rain    
Averages and records for this station are not official NWS values.
T = Trace of Precipitation, MM = Missing Value Source: NWS Daily Summary

Daily Weather History Graph

Daily Weather History Graph

Search for Another Location

Airport:

Trip Planner

Search our weather history database for the weather conditions in past years. The results will help you decide how hot, cold, wet, or windy it might be!

Date:

Astronomy

Oct. 05, 2013 Rise Set
Actual Time 6:58 AM CDT 6:30 PM CDT
Civil Twilight 6:29 AM CDT 6:58 PM CDT
Nautical Twilight 5:57 AM CDT 7:30 PM CDT
Astronomical Twilight 5:24 AM CDT 8:03 PM CDT
Moon 7:38 AM CDT (10/5) 6:46 PM CDT (10/5)
Length of Visible Light 12h 28m
Length of Day
11h 32m
New Moon, 1% of the Moon is Illuminated
Oct 5
New Moon
Oct 11
First Quarter
Oct 18
Full
Oct 26
Last Quarter
Nov 3
New

Hourly Weather History & Observations

Time (CDT) Temp. Dew Point Humidity Pressure Visibility Wind Dir Wind Speed Gust Speed Precip Events Conditions
12:15 AM 64.4 °F 62.6 °F 94% 29.93 in 5.0 mi ESE 9.2 mph - N/A   Overcast
12:35 AM 64.4 °F 62.6 °F 94% 29.92 in 5.0 mi ESE 9.2 mph - N/A   Mostly Cloudy
12:55 AM 64.4 °F 62.6 °F 94% 29.92 in 5.0 mi ESE 5.8 mph - N/A   Scattered Clouds
1:15 AM 64.4 °F 60.8 °F 88% 29.91 in 5.0 mi ESE 4.6 mph - N/A   Clear
1:35 AM 62.6 °F 60.8 °F 94% 29.92 in 4.0 mi Calm Calm - N/A   Scattered Clouds
1:55 AM 62.6 °F 60.8 °F 94% 29.92 in 3.0 mi East 4.6 mph - N/A   Clear
2:15 AM 62.6 °F 60.8 °F 94% 29.92 in 3.0 mi East 3.5 mph - N/A   Scattered Clouds
2:35 AM 62.6 °F 60.8 °F 94% 29.91 in 2.5 mi East 5.8 mph - N/A   Scattered Clouds
2:55 AM 62.6 °F 60.8 °F 94% 29.90 in 2.5 mi East 3.5 mph - N/A   Clear
3:15 AM 62.6 °F 60.8 °F 94% 29.90 in 2.0 mi ESE 4.6 mph - N/A   Clear
3:35 AM 62.6 °F 60.8 °F 94% 29.90 in 2.0 mi East 3.5 mph - N/A   Clear
3:55 AM 62.6 °F 59.0 °F 88% 29.90 in 2.0 mi East 4.6 mph - N/A   Clear
4:15 AM 62.6 °F 60.8 °F 94% 29.89 in 2.5 mi East 4.6 mph - N/A   Clear
4:35 AM 62.6 °F 60.8 °F 94% 29.89 in 2.5 mi East 4.6 mph - N/A   Clear
4:55 AM 62.6 °F 60.8 °F 94% 29.89 in 2.5 mi East 4.6 mph - N/A   Clear
5:15 AM 62.6 °F 60.8 °F 94% 29.89 in 2.5 mi East 3.5 mph - N/A   Clear
5:35 AM 64.4 °F 60.8 °F 88% 29.89 in 2.5 mi ESE 3.5 mph - N/A   Mostly Cloudy
5:45 AM 64.4 °F 62.6 °F 94% 29.89 in 2.5 mi Variable 5.8 mph - N/A   Mostly Cloudy
6:45 AM 64.4 °F 62.6 °F 94% 29.89 in 2.0 mi Calm Calm - N/A   Mostly Cloudy
7:45 AM 66.2 °F 64.4 °F 94% 29.89 in 2.0 mi Variable 4.6 mph - N/A   Mostly Cloudy
8:45 AM 69.8 °F 66.2 °F 88% 29.89 in 2.5 mi Variable 5.8 mph - N/A   Overcast
9:45 AM 71.6 °F 68.0 °F 88% 29.88 in 4.0 mi South 9.2 mph - N/A   Overcast
10:45 AM 73.4 °F 69.8 °F 88% 29.88 in 5.0 mi SW 8.1 mph - N/A   Overcast
12:45 PM 73.4 °F 69.8 °F 88% 29.86 in 3.0 mi South 5.8 mph - N/A Rain Rain
1:45 PM 73.4 °F 69.8 °F 88% 29.84 in 3.0 mi South 5.8 mph - N/A Rain Light Rain
2:45 PM 73.4 °F 69.8 °F 88% 29.78 in 7.0 mi Calm Calm - N/A   Scattered Clouds
3:45 PM 75.2 °F 68.0 °F 78% 29.79 in 10.0 mi SSE 5.8 mph - N/A Rain Light Rain
4:45 PM 73.4 °F 69.8 °F 88% 29.77 in 10.0 mi SSE 9.2 mph - N/A   Mostly Cloudy
5:45 PM 73.4 °F 66.2 °F 78% 29.78 in 10.0 mi SSE 6.9 mph - N/A   Scattered Clouds
6:45 PM 71.6 °F 64.4 °F 78% 29.77 in 10.0 mi SSE 4.6 mph - N/A   Clear
8:45 PM 69.8 °F 64.4 °F 83% 29.78 in 10.0 mi WSW 11.5 mph - N/A   Overcast
9:15 PM 68.0 °F 60.8 °F 78% 29.78 in 10.0 mi SW 9.2 mph - N/A   Overcast
9:35 PM 66.2 °F 60.8 °F 83% 29.77 in 10.0 mi SSW 6.9 mph - N/A   Overcast
9:55 PM 66.2 °F 59.0 °F 78% 29.77 in 10.0 mi SW 8.1 mph - N/A   Overcast
10:15 PM 64.4 °F 55.4 °F 73% 29.78 in 10.0 mi WSW 10.4 mph - N/A   Overcast
10:35 PM 64.4 °F 53.6 °F 68% 29.78 in 10.0 mi WSW 11.5 mph - N/A   Overcast
10:55 PM 62.6 °F 53.6 °F 72% 29.78 in 10.0 mi WSW 6.9 mph - N/A   Overcast
11:15 PM 62.6 °F 53.6 °F 72% 29.77 in 10.0 mi WSW 6.9 mph - N/A   Overcast
11:35 PM 60.8 °F 46.4 °F 59% 29.77 in 10.0 mi West 17.3 mph - N/A   Overcast
11:55 PM 60.8 °F 44.6 °F 55% 29.77 in 10.0 mi WSW 10.4 mph - N/A   Overcast